Home > Weather > Amarillo > Past weeks

Flag for USA Weather for the Past 2 Weeks in Amarillo, Texas, USA

Now
45 °F

Mostly cloudy.


Feels Like: 36 °F
Forecast: 38 / 48 °F
Wind: 25 mph from North

Location: Amarillo International Airport

Current Time: May 1, 2016 at 2:54:19 PM

Latest Report: May 1, 2016 at 1:53 PM


Visibility: 10 mi

Pressure: 30.16 "Hg (26.32 "Hg at 1117m altitude)

Humidity: 71%

Dew Point: 36 °F

Location of AmarilloLocation

Historic Weather in Amarillo — Graph

°F

Amarillo Temperature Yesterday

Maximum temperature yesterday: 61 °F (at 5:53 PM)
Minimum temperature yesterday: 36 °F (at 6:53 AM)
Average temperature yesterday: 48 °F

High & Low Weather Summary for the Past Weeks

 TemperatureHumidityPressure
High85 °F (Apr 25, 3:53 PM)97% (Apr 18, 1:53 AM)30.27 "Hg (Apr 18, 1:53 AM)
Low36 °F (Apr 30, 6:53 AM)11% (Apr 24, 4:53 PM)29.49 "Hg (Apr 26, 2:53 PM)
Average57 °F61%29.86 "Hg
* Reported Apr 16 1:53 PM — May 1 1:53 PM, Amarillo, Weather by CustomWeather, © 2016

Note: Actual official high and low records may vary slightly from our data, if they occured in-between our weather recording intervals... More about our weather records

Advertising

Amarillo Weather History for the Previous 24 Hours

Scroll right to see more
 ConditionsComfort  
Time TempWeatherWind HumidityBarometerVisibility
1:53 PM
Sun, May 1
45 °FMostly cloudy.25 mph71%30.16 "Hg10 mi
12:53 PM43 °FMore clouds than sun.24 mph76%30.19 "Hg10 mi
11:53 AM45 °FOvercast.20 mph65%30.16 "Hg10 mi
10:53 AM45 °FOvercast.23 mph63%30.13 "Hg10 mi
9:53 AM45 °FMostly cloudy.26 mph63%30.11 "Hg10 mi
8:53 AM44 °FPartly sunny.22 mph65%30.10 "Hg10 mi
7:53 AM42 °FOvercast.22 mph71%30.08 "Hg10 mi
6:53 AM41 °FOvercast.20 mph74%30.07 "Hg10 mi
5:53 AM40 °FOvercast.20 mph77%30.06 "Hg10 mi
4:53 AM41 °FOvercast.20 mph74%30.05 "Hg10 mi
3:53 AM41 °FOvercast.21 mph74%30.05 "Hg10 mi
2:53 AM40 °FOvercast.24 mph77%30.05 "Hg10 mi
1:53 AM42 °FClear.28 mph68%30.01 "Hg10 mi
12:53 AM44 °FOvercast.21 mph68%30.01 "Hg10 mi
11:53 PM
Sat, Apr 30
46 °FLight rain. Overcast.18 mph68%30.03 "Hg10 mi
10:53 PM47 °FMostly cloudy.17 mph66%29.99 "Hg10 mi
9:53 PM50 °FPartly cloudy.13 mph61%29.96 "Hg10 mi
8:53 PM51 °FScattered clouds.16 mph63%29.92 "Hg10 mi
7:53 PM55 °FPassing clouds.10 mph53%29.89 "Hg10 mi
6:53 PM60 °FSunny.6 mph42%29.86 "Hg10 mi
5:53 PM61 °FScattered clouds.9 mph42%29.84 "Hg10 mi
4:53 PM60 °FOvercast.7 mph46%29.83 "Hg10 mi
3:53 PM57 °FOvercast.8 mph49%29.85 "Hg10 mi
2:53 PM57 °FMostly cloudy.12 mph49%29.85 "Hg10 mi
Weather by CustomWeather, © 2016

See weather overviewHow to use our weather pages